TimeEET,TemperatureF,Dew PointF,Humidity,Sea Level PressureIn,VisibilityMPH,Wind Direction,Wind SpeedMPH,Gust SpeedMPH,PrecipitationIn,Events,Conditions,WindDirDegrees,DateUTC
12:20 AM,42.8,41.0,93,30.18,-9999.0,Variable,2.3,-,N/A,,Clear,0,2012-11-03 22:20:00
12:50 AM,44.6,42.8,93,30.18,-9999.0,Variable,2.3,-,N/A,,Clear,0,2012-11-03 22:50:00
1:20 AM,42.8,41.0,93,30.18,-9999.0,Variable,1.2,-,N/A,,Clear,0,2012-11-03 23:20:00
1:50 AM,42.8,41.0,93,30.18,-9999.0,Variable,2.3,-,N/A,,Clear,0,2012-11-03 23:50:00
2:00 AM,42,40,91,30.14,6,NNE,2.3,,,,,30,2012-11-04 00:00:00
2:20 AM,41.0,39.2,93,30.18,-9999.0,NE,3.5,-,N/A,,Clear,40,2012-11-04 00:20:00
2:50 AM,39.2,37.4,93,30.18,-9999.0,Variable,3.5,-,N/A,,Clear,0,2012-11-04 00:50:00
3:20 AM,39.2,39.2,100,30.18,-9999.0,Variable,2.3,-,N/A,,Clear,0,2012-11-04 01:20:00
3:50 AM,41.0,39.2,93,30.18,-9999.0,Variable,1.2,-,N/A,,Clear,0,2012-11-04 01:50:00
4:20 AM,39.2,37.4,93,30.18,-9999.0,West,1.2,-,N/A,,Clear,260,2012-11-04 02:20:00
4:50 AM,41.0,39.2,93,30.18,-9999.0,ENE,2.3,-,N/A,,Clear,70,2012-11-04 02:50:00
5:20 AM,41.0,41.0,100,30.18,6.2,East,2.3,-,N/A,,Partly Cloudy,80,2012-11-04 03:20:00
5:50 AM,41.0,39.2,93,30.18,6.2,NE,3.5,-,N/A,,Partly Cloudy,50,2012-11-04 03:50:00
6:20 AM,39.2,37.4,93,30.18,-9999.0,Variable,2.3,-,N/A,,Clear,0,2012-11-04 04:20:00
6:50 AM,37.4,37.4,100,30.18,-9999.0,Variable,2.3,-,N/A,,Clear,0,2012-11-04 04:50:00
7:20 AM,41.0,39.2,93,30.18,-9999.0,Variable,2.3,-,N/A,,Clear,0,2012-11-04 05:20:00
7:50 AM,42.8,41.0,93,30.21,-9999.0,SE,4.6,-,N/A,,Clear,130,2012-11-04 05:50:00
8:00 AM,43,40,84,30.21,12,SE,4.6,,,,Scattered Clouds,130,2012-11-04 06:00:00
8:20 AM,46.4,42.8,87,30.21,-9999.0,Variable,2.3,-,N/A,,Clear,0,2012-11-04 06:20:00
8:50 AM,48.2,42.8,82,30.21,6.2,Variable,2.3,-,N/A,,Partly Cloudy,0,2012-11-04 06:50:00
9:20 AM,51.8,44.6,76,30.21,6.2,Variable,2.3,-,N/A,,Scattered Clouds,0,2012-11-04 07:20:00
9:50 AM,53.6,44.6,72,30.18,6.2,Variable,2.3,-,N/A,,Scattered Clouds,0,2012-11-04 07:50:00
10:20 AM,57.2,44.6,63,30.18,6.2,Variable,2.3,-,N/A,,Scattered Clouds,0,2012-11-04 08:20:00
10:50 AM,59.0,46.4,63,30.18,6.2,Variable,2.3,-,N/A,,Scattered Clouds,0,2012-11-04 08:50:00
11:20 AM,60.8,44.6,55,30.18,6.2,Variable,2.3,-,N/A,,Scattered Clouds,0,2012-11-04 09:20:00
11:50 AM,64.4,46.4,52,30.15,6.2,Variable,1.2,-,N/A,,Scattered Clouds,0,2012-11-04 09:50:00
12:20 PM,66.2,44.6,46,30.15,6.2,Variable,2.3,-,N/A,,Scattered Clouds,0,2012-11-04 10:20:00
12:50 PM,66.2,44.6,46,30.12,6.2,South,5.8,-,N/A,,Scattered Clouds,170,2012-11-04 10:50:00
1:20 PM,68.0,44.6,43,30.12,6.2,SSW,9.2,-,N/A,,Scattered Clouds,210,2012-11-04 11:20:00
1:50 PM,66.2,44.6,46,30.12,6.2,SSW,12.7,-,N/A,,Scattered Clouds,210,2012-11-04 11:50:00
2:00 PM,67,44,33,30.09,12,SSW,12.7,,,,Partly Cloudy,210,2012-11-04 12:00:00
2:20 PM,68.0,44.6,43,30.12,6.2,WSW,11.5,-,N/A,,Scattered Clouds,240,2012-11-04 12:20:00
2:50 PM,68.0,46.4,46,30.09,6.2,SW,6.9,-,N/A,,Scattered Clouds,220,2012-11-04 12:50:00
3:20 PM,68.0,44.6,43,30.09,6.2,SSW,6.9,-,N/A,,Scattered Clouds,210,2012-11-04 13:20:00
3:50 PM,68.0,44.6,43,30.09,6.2,SW,6.9,-,N/A,,Scattered Clouds,230,2012-11-04 13:50:00
4:20 PM,64.4,44.6,49,30.09,6.2,WSW,5.8,-,N/A,,Scattered Clouds,240,2012-11-04 14:20:00
4:50 PM,62.6,44.6,52,30.09,6.2,West,3.5,-,N/A,,Scattered Clouds,270,2012-11-04 14:50:00
5:20 PM,60.8,44.6,55,30.12,6.2,WNW,4.6,-,N/A,,Scattered Clouds,290,2012-11-04 15:20:00
5:50 PM,59.0,44.6,59,30.12,6.2,Variable,2.3,-,N/A,,Scattered Clouds,0,2012-11-04 15:50:00
6:20 PM,59.0,44.6,59,30.12,6.2,Variable,1.2,-,N/A,,Scattered Clouds,0,2012-11-04 16:20:00
6:50 PM,57.2,44.6,63,30.12,6.2,Variable,2.3,-,N/A,,Scattered Clouds,0,2012-11-04 16:50:00
7:20 PM,53.6,44.6,72,30.12,6.2,Variable,2.3,-,N/A,,Partly Cloudy,0,2012-11-04 17:20:00
7:50 PM,53.6,44.6,72,30.12,-9999.0,ENE,3.5,-,N/A,,Clear,70,2012-11-04 17:50:00
8:00 PM,53,44,63,30.14,12,ENE,3.5,,,,,70,2012-11-04 18:00:00
8:20 PM,51.8,42.8,71,30.12,-9999.0,NNE,4.6,-,N/A,,Clear,20,2012-11-04 18:20:00
8:50 PM,50.0,42.8,76,30.12,-9999.0,Variable,2.3,-,N/A,,Clear,0,2012-11-04 18:50:00
9:20 PM,48.2,42.8,82,30.12,-9999.0,Variable,1.2,-,N/A,,Clear,0,2012-11-04 19:20:00
9:50 PM,48.2,42.8,82,30.12,-9999.0,Variable,2.3,-,N/A,,Clear,0,2012-11-04 19:50:00
10:20 PM,46.4,42.8,87,30.12,-9999.0,Variable,1.2,-,N/A,,Clear,0,2012-11-04 20:20:00
10:50 PM,46.4,42.8,87,30.12,-9999.0,Calm,Calm,-,N/A,,Clear,0,2012-11-04 20:50:00
11:20 PM,46.4,42.8,87,30.12,-9999.0,Variable,2.3,-,N/A,,Clear,0,2012-11-04 21:20:00
11:50 PM,44.6,41.0,87,30.12,-9999.0,Calm,Calm,-,N/A,,Clear,0,2012-11-04 21:50:00